This demonstration page uses our WeatherBlox Daily Observations layout. Learn more.

38.89511, -77.03637

Hourly Observations for September 12, 2015

Temp ( °F °C ) Dew Point ( °F °C ) Humidity (%) Winds ( mph kmh ) Pressure ( in mb ) Visibility ( mi km ) Precip ( " mm )
12:52 am 00:52 Clear 70 21.1 63 17.2 79 79 SW 5 7 29.82 1010 10 16.0934 0 0
1:52 am 01:52 Clear 69 20.6 64 17.8 84 84 Calm 29.81 1010 10 16.0934 0 0
2:52 am 02:52 Clear 69 20.6 61 16.1 76 76 S 3 6 29.8 1009 10 16.0934 0 0
3:52 am 03:52 Clear 68 20 63 17.2 84 84 Calm 29.8 1009 10 16.0934 0 0
4:52 am 04:52 Partly Cloudy 68 20 64 17.8 87 87 Calm 29.78 1009 10 16.0934 0 0
5:52 am 05:52 Partly Cloudy 68 20 64 17.8 87 87 Calm 29.78 1008 10 16.0934 0 0
6:23 am 06:23 Cloudy 68 20 66 19 94 94 SSE 5 7 29.77 1008 10 16.0934 0 0
6:52 am 06:52 Cloudy 69 20.6 66 18.9 90 90 SE 3 6 29.78 1009 10 16.0934 0 0
6:56 am 06:56 Cloudy 70 21 66 19 88 88 Calm 29.8 1009 10 16.0934 0 0
7:19 am 07:19 Cloudy 70 21 66 19 88 88 E 5 7 29.77 1008 10 16.0934 0 0
7:52 am 07:52 Cloudy 70 21.1 67 19.4 90 90 SE 6 9 29.78 1008 10 16.0934 0 0
8:52 am 08:52 Cloudy with Light Rain 70 21.1 68 20 93 93 ESE 6 9 29.75 1008 9 14.48406 0.02 0.508
9:52 am 09:52 Cloudy 72 22.2 69 20.6 91 91 SSE 5 7 29.75 1008 10 16.0934 0.03 0.762
10:52 am 10:52 Cloudy with Light Rain 73 22.8 70 21.1 90 90 S 12 19 29.74 1007 10 16.0934 0.02 0.508
11:52 am 11:52 Cloudy 75 23.9 70 21.1 84 84 SSE 10 17 29.73 1007 10 16.0934 0 0.0254
12:52 pm 12:52 Cloudy with Light Rain 75 23.9 71 21.7 88 88 SSE 10 17 29.71 1006 9 14.48406 0 0.0254
1:30 pm 13:30 Cloudy with Heavy Rain 73 23 72 22 94 94 S 13 20 29.68 1005 2 3.21868 0 0
1:44 pm 13:44 Cloudy with Rain 73 23 72 22 94 94 SSW 9 15 29.68 1005 4 6.43736 0 0
1:52 pm 13:52 Cloudy with Light Rain 73 22.8 71 21.7 94 94 S 13 20 29.69 1005 9 14.48406 0.09 2.286
1:58 pm 13:58 Cloudy 73 23 72 22 94 94 SSW 10 17 29.68 1005 10 16.0934 0 0
2:43 pm 14:43 Cloudy 73 23 70 21 89 89 SSE 6 9 29.68 1005 10 16.0934 0 0.0254
2:52 pm 14:52 Cloudy 73 22.8 70 21.1 90 90 Calm 29.67 1005 10 16.0934 0 0.0254
3:05 pm 15:05 Cloudy 73 23 72 22 94 94 S 3 6 29.65 1004 10 16.0934 0 0
3:21 pm 15:21 Cloudy 75 24 72 22 89 89 S 5 7 29.65 1004 10 16.0934 0 0
3:52 pm 15:52 Cloudy 75 23.9 70 21.1 84 84 S 6 9 29.65 1004 10 16.0934 0 0
4:03 pm 16:03 Cloudy 75 24 70 21 83 83 SW 7 11 29.65 1004 10 16.0934 0 0
4:25 pm 16:25 Cloudy 75 24 70 21 83 83 WSW 6 9 29.65 1004 10 16.0934 0 0
4:36 pm 16:36 Cloudy 75 24 70 21 83 83 WNW 9 15 29.65 1004 10 16.0934 0 0
4:45 pm 16:45 Cloudy 75 24 70 21 83 83 WNW 8 13 29.65 1004 10 16.0934 0 0
4:52 pm 16:52 Cloudy 75 23.9 69 20.6 82 82 W 10 17 29.65 1004 10 16.0934 0 0
5:06 pm 17:06 Cloudy 75 24 68 20 78 78 W 9 15 29.65 1004 10 16.0934 0 0
5:52 pm 17:52 Cloudy 74 23.3 68 20 82 82 W 7 11 29.65 1004 10 16.0934 0 0
6:52 pm 18:52 Cloudy 73 22.8 68 20 84 84 VRB 5 7 29.67 1005 10 16.0934 0 0
7:52 pm 19:52 Cloudy 73 22.8 66 18.9 79 79 W 8 13 29.67 1005 10 16.0934 0 0
8:52 pm 20:52 Cloudy 72 22.2 65 18.3 79 79 WNW 7 11 29.69 1006 10 16.0934 0 0
9:52 pm 21:52 Cloudy 71 21.7 64 17.8 79 79 WNW 6 9 29.7 1006 10 16.0934 0 0
10:52 pm 22:52 Cloudy 71 21.7 62 16.7 73 73 WNW 6 9 29.72 1006 10 16.0934 0 0
11:52 pm 23:52 Mostly Cloudy 69 20.6 61 16.1 76 76 WNW 6 9 29.71 1006 10 16.0934 0 0

Powered by AerisWeather